This is the latest recevied weather packets stored in our database for station/object OK1OBR-13. If no packets are shown the sender has not sent any weather packets the latest 1 day(s).
| Time | Temp. | Humidity | Pressure | Rain* | Wind** | Luminosity | Snow |
|---|---|---|---|---|---|---|---|
| 1777997820 | 20° C | 44% | 928 hPa | 0 mm | 0.45 m/s, 124° | - | - |
| 1777997762 | 20° C | 44% | 928.2 hPa | 0 mm | 0.45 m/s, 134° | - | - |
| 1777997701 | 20° C | 43% | 928.2 hPa | 0 mm | 0.45 m/s, 140° | - | - |
| 1777997641 | 20° C | 44% | 928.3 hPa | 0 mm | 0.45 m/s, 140° | - | - |
| 1777997581 | 20° C | 42% | 928.3 hPa | 0 mm | 0.45 m/s, 141° | - | - |
| 1777997521 | 20° C | 44% | 928.2 hPa | 0 mm | 0.45 m/s, 169° | - | - |
| 1777997462 | 20° C | 43% | 928.3 hPa | 0 mm | 0 m/s | - | - |
| 1777997401 | 20° C | 43% | 928.4 hPa | 0 mm | 0 m/s | - | - |
| 1777997341 | 20° C | 43% | 928.4 hPa | 0 mm | 0 m/s | - | - |
| 1777997281 | 20° C | 44% | 928.4 hPa | 0 mm | 0.45 m/s, 155° | - | - |
| 1777997223 | 20° C | 45% | 928.4 hPa | 0 mm | 0 m/s | - | - |
| 1777997161 | 20° C | 44% | 928.3 hPa | 0 mm | 0.45 m/s, 155° | - | - |
| 1777997101 | 20° C | 42% | 928.5 hPa | 0 mm | 0.45 m/s, 162° | - | - |
| 1777997041 | 20° C | 43% | 928.3 hPa | 0 mm | 0.45 m/s, 134° | - | - |
| 1777996985 | 20° C | 45% | 928.4 hPa | 0 mm | 0.45 m/s, 144° | - | - |
| 1777996922 | 20° C | 43% | 928.5 hPa | 0 mm | 0.45 m/s, 151° | - | - |
| 1777996860 | 20° C | 43% | 928.3 hPa | 0 mm | 0.45 m/s, 147° | - | - |
| 1777996801 | 20° C | 43% | 928.4 hPa | 0 mm | 0.45 m/s, 138° | - | - |
| 1777996745 | 20° C | 42% | 928.5 hPa | 0 mm | 0.45 m/s, 147° | - | - |
| 1777996682 | 20° C | 44% | 928.3 hPa | 0 mm | 0.45 m/s, 156° | - | - |
| 1777996622 | 20° C | 44% | 928.4 hPa | 0 mm | 0.45 m/s, 156° | - | - |
| 1777996562 | 20° C | 43% | 928.4 hPa | 0 mm | 0.45 m/s, 145° | - | - |
| 1777996501 | 20° C | 43% | 928.5 hPa | 0 mm | 0.45 m/s, 151° | - | - |
| 1777996441 | 20° C | 43% | 928.4 hPa | 0 mm | 0.45 m/s, 150° | - | - |
| 1777996381 | 20° C | 43% | 928.4 hPa | 0 mm | 0.45 m/s, 142° | - | - |
* Rain since midnight (hover to see other rain measurements)
** Current wind speed in m/s (hover to see current wind gust speed)